Starlink 32033

operational
NORAD ID: 60144 Int'l Des: 2024-120 Owner: SPXS Country: US Constellation: starlink
LEOCIRCULAR

About Starlink 32033

Description loading...

Live Position

Loading 3D Globe...

Upcoming Passes

Altitude History

Altitude vs Time

uPlot chart will show altitude changes over time

Two-Line Element Set

1 60144U 24120K 25351.36161269 .00001129 00000-0 50267-4 0 9991
2 60144 53.1619 342.1703 0001534 90.4935 269.6242 15.30194322 83771
Epoch: Dec 17, 2025 • Age: 18 hours

Current Status

Altitude 480.3 km
Velocity 7.63 km/s
Sub-Earth Point -17.53°S, 43.3°E
Launch Date Jun 27, 2024
Age 1.4 years
Type internet

Technical Details

Classification Payload
Mass 730.00 kg
Dry Mass 700.00 kg
Total Mass 730.00 kg
Length 0.30 m
Diameter 4.10 m
Span 29.00 m
Shape Box + pan
Manufacturer SPXS
Bus Type Starlink V2M
Phase Status In Orbit
Owner/State SPXS/US

Large Constellations

Loading constellations...